[[{"header":{"parameterUnit":"m.s-1","parameterCategory":1,"la1":30.2991,"la2":30.254,"lo1":-89.0895,"lo2":-89.0444,"dy":0.0017,"dx":0.0017,"nx":28,"ny":28,"refTime":"2025-05-16T03:00:00:Z","depth":0,"parameterNumber":2,"parameterNumberName":"U-component_of_WINDS"},"data":[0,0,0,0,0,0,0,0,0,0,0,0,0,0,0,0,0,0,0,0,0,0,0,0,0,0,0,0,0,0,0,0,0,0,0,0,0,0,0,0,0,0,0,0,0,0,0,0,0,0,0,0,0,0,0,0,0,0,1.4858,1.4859,0,1.4909,1.4909,1.491,1.4898,1.4897,1.4896,1.4895,1.4946,1.4948,1.495,0,0,0,0,0,0,0,0,0,0,0,0,0,1.4749,1.4751,1.4858,1.4859,1.4859,1.4909,1.4909,1.491,1.4898,1.4897,1.4896,1.4895,1.4945,1.4948,1.495,0,0,0,0,0,0,0,0,0,0,0,0,0,1.4798,1.4752,1.4858,1.4859,1.486,1.4908,1.4909,1.491,1.4899,1.4897,1.4896,1.4894,1.4944,1.4947,1.4951,1.5,0,0,1.4961,1.4962,0,0,0,0,0,0,0,0,1.4795,1.4802,1.4859,1.4859,1.486,1.4896,1.4889,1.494,1.4899,1.4884,1.4895,1.4894,1.493,1.4935,1.4947,1.5003,1.5005,1.4961,1.4963,1.4965,1.4966,0,0,0,0,0,0,0,1.4791,1.4799,1.4878,1.4859,1.486,1.4857,1.4862,1.4899,1.4914,1.4885,1.4884,1.4891,1.493,1.4944,1.4948,1.5005,1.4961,1.4964,1.4966,1.4967,1.5102,1.5104,0,0,0,0,0,0,1.4788,1.4797,1.4876,1.488,1.4823,1.486,1.4866,1.4886,1.4914,1.4917,1.4892,1.489,1.4939,1.4944,1.495,1.5009,1.4965,1.4968,1.497,1.5101,1.5103,1.5104,0,0,0,0,0,0,1.4785,1.4795,1.4874,1.4838,1.4848,1.4863,1.4886,1.4887,1.4901,1.4919,1.4922,1.4903,1.4938,1.4945,1.4988,1.501,1.4969,1.4972,1.5099,1.5101,1.5104,1.5127,0,0,0,0,0,0,1.4782,1.4794,1.4814,1.4838,1.485,1.4912,1.4887,1.489,1.4907,1.4905,1.493,1.4933,1.4937,1.4983,1.4991,1.5014,1.4975,1.5097,1.51,1.5103,1.5124,1.513,1.5135,0,0,0,0,0,1.4778,1.4818,1.4815,1.4825,1.4875,1.4913,1.492,1.4924,1.4909,1.4928,1.494,1.4932,1.5007,1.4987,1.4996,1.5021,1.5096,1.5099,1.5103,1.5122,1.5129,1.5135,0,0,0,0,0,0,1.4796,1.4822,1.4818,1.4867,1.4888,1.4911,1.4936,1.4932,1.4957,1.4954,1.4958,1.4964,1.5007,1.5018,1.4996,1.507,1.5049,1.5054,1.506,1.5067,1.5072,1.5068,1.4978,0,0,0,0,0,1.4805,1.4835,1.4856,1.4897,1.4908,1.492,1.4937,1.4939,1.496,1.4969,1.4983,1.5004,1.5032,1.505,1.5077,1.5126,1.5131,1.5148,1.5153,1.5157,1.5161,1.5187,1.5194,1.5116,1.5116,1.5116,0,0,1.4825,1.4843,1.4862,1.4901,1.4918,1.4947,1.4928,1.496,1.4982,1.4974,1.5014,1.5026,1.5049,1.5095,1.5115,1.5105,1.5184,1.5162,1.5165,1.5167,1.5191,1.5199,1.5205,1.5118,1.5118,1.5118,0,0,1.4876,1.4894,1.4929,1.4946,1.4971,1.4979,1.4988,1.5011,1.5018,1.5059,1.5053,1.5079,1.5127,1.5144,1.5158,1.5215,1.5209,1.5224,1.5251,1.5276,1.5282,1.5287,1.5306,1.5313,1.5228,1.5228,1.5228,0,1.4898,1.4943,1.4948,1.4981,1.4998,1.4992,1.5028,1.5044,1.5076,1.5088,1.5076,1.5136,1.5151,1.52,1.5214,1.5226,1.5235,1.5221,1.5281,1.5286,1.5291,1.5309,1.5317,1.523,1.523,1.523,1.5229,0,1.4968,1.4999,1.5025,1.5057,1.5077,1.5111,1.512,1.5139,1.5139,1.5148,1.5189,1.5207,1.5237,1.5248,1.5249,1.5297,1.529,1.528,1.5259,1.53,1.5317,1.5324,1.5232,1.5232,1.5231,1.5231,0,0,1.5031,1.5065,1.5074,1.5088,1.5115,1.5139,1.5172,1.5202,1.5218,1.524,1.5267,1.5308,1.5298,1.5315,1.5317,1.5339,1.5381,1.5325,1.5326,1.5334,1.5433,1.544,1.5448,1.5377,1.5378,1.5379,1.5431,0,1.5084,1.5143,1.5148,1.5202,1.523,1.5224,1.5253,1.5272,1.5281,1.5306,1.5315,1.5343,1.5329,1.5339,1.5361,1.5371,1.54,1.5368,1.5401,1.5402,1.5395,1.5457,1.5465,1.5513,1.5438,1.5439,1.544,0,1.5154,1.5178,1.5234,1.5256,1.5268,1.5294,1.5321,1.5345,1.5366,1.5371,1.5389,1.5388,1.5421,1.5399,1.5444,1.5422,1.5436,1.5443,1.5445,1.5447,1.5423,1.546,1.5528,1.5535,1.5451,1.545,1.5449,0,1.5193,1.524,1.5279,1.5291,1.5318,1.5336,1.5348,1.5368,1.5385,1.5408,1.5419,1.5446,1.546,1.548,1.5486,1.547,1.553,1.5509,1.5534,1.5534,1.5546,1.5545,1.5616,1.5557,1.5557,1.5557,1.5557,0,1.525,1.5285,1.5297,1.5321,1.5358,1.5364,1.54,1.5411,1.5429,1.5454,1.5451,1.5475,1.5481,1.5505,1.551,1.5546,1.5552,1.5556,1.5557,1.5556,1.5555,1.5565,1.5561,1.5559,1.5558,1.5558,1.5558,0,1.53,1.531,1.5352,1.5374,1.5381,1.5407,1.5426,1.5448,1.5456,1.5488,1.5496,1.5509,1.5537,1.5545,1.5579,1.5582,1.5624,1.5622,1.5617,1.5616,1.564,1.5637,1.5719,1.5729,1.5664,1.5665,1.5665,0,1.5336,1.5362,1.5387,1.5404,1.5417,1.5444,1.5461,1.5467,1.5485,1.5511,1.553,1.5558,1.5581,1.5627,1.5638,1.5664,1.5662,1.5689,1.5666,1.5664,1.5661,1.5659,1.5661,1.5693,1.5693,1.5694,1.5694,0,1.5398,1.5401,1.5427,1.5454,1.5475,1.5496,1.5516,1.553,1.5539,1.5559,1.5588,1.5606,1.5641,1.5668,1.5694,1.5705,1.5701,1.5702,1.5708,1.5707,1.5703,1.5704,1.5627,1.5699,1.5699,1.5699,1.5698,1.5698,1.5441,1.5463,1.5484,1.5512,1.5528,1.5547,1.5569,1.558,1.5605,1.5634,1.5636,1.5667,1.5687,1.5721,1.5734,1.5758,1.575,1.576,1.5762,1.5764,1.5766,1.57,1.5763,1.5763,1.5762,1.5762,1.5762,0,1.5501,1.5514,1.554,1.5569,1.5591,1.5586,1.5608,1.5626,1.5654,1.5673,1.5695,1.5728,1.5755,1.5769,1.5795,1.5811,1.581,1.5818,1.5816,1.5818,1.5772,1.5763,1.5819,1.5819,1.5819,1.5819,1.5819,1.5819,1.5535,1.5573,1.5579,1.5623,1.5636,1.5667,1.568,1.5697,1.5712,1.575,1.5772,1.5781,1.5797,1.5824,1.5848,1.5851,1.586,1.5869,1.5871,1.5828,1.5822,1.5816,1.5808,1.5872,1.5872,1.5915,1.5916,1.5916]},{"header":{"parameterUnit":"m.s-1","parameterCategory":1,"la1":30.2991,"la2":30.254,"lo1":-89.0895,"lo2":-89.0444,"dy":0.0017,"dx":0.0017,"nx":28,"ny":28,"refTime":"2025-05-16T03:00:00:Z","depth":0,"parameterNumber":3,"parameterNumberName":"V-component_of_WINDS"},"data":[0,0,0,0,0,0,0,0,0,0,0,0,0,0,0,0,0,0,0,0,0,0,0,0,0,0,0,0,0,0,0,0,0,0,0,0,0,0,0,0,0,0,0,0,0,0,0,0,0,0,0,0,0,0,0,0,0,0,4.8959,4.896,0,4.9047,4.9048,4.9049,4.9003,4.9001,4.8999,4.8997,4.908,4.9085,4.9089,0,0,0,0,0,0,0,0,0,0,0,0,0,4.8746,4.8751,4.8959,4.896,4.8961,4.9047,4.9048,4.9049,4.9004,4.9001,4.8998,4.8996,4.9079,4.9084,4.9089,0,0,0,0,0,0,0,0,0,0,0,0,0,4.8837,4.8752,4.8959,4.8949,4.8949,4.9046,4.9048,4.9049,4.9004,4.9001,4.8997,4.8994,4.9077,4.9084,4.909,4.92,0,0,4.911,4.9113,0,0,0,0,0,0,0,0,4.8832,4.8845,4.895,4.895,4.895,4.9011,4.9004,4.91,4.9005,4.8983,4.8997,4.8993,4.906,4.9067,4.9091,4.9204,4.9208,4.9111,4.9115,4.9118,4.9119,0,0,0,0,0,0,0,4.8826,4.8841,4.8994,4.8951,4.8952,4.8938,4.8947,4.9022,4.904,4.8985,4.8982,4.8993,4.9059,4.9085,4.9093,4.9209,4.9111,4.9116,4.9121,4.9123,4.9415,4.9419,0,0,0,0,0,0,4.8821,4.8836,4.8991,4.8996,4.8882,4.8945,4.8955,4.8995,4.9039,4.9042,4.8996,4.8991,4.9076,4.9085,4.9096,4.9228,4.9118,4.9124,4.9128,4.9412,4.9416,4.942,0,0,0,0,0,0,4.8816,4.8835,4.8987,4.8915,4.8934,4.8953,4.8997,4.8998,4.9024,4.9047,4.905,4.902,4.9073,4.9086,4.9175,4.923,4.9127,4.9133,4.9407,4.9413,4.9418,4.9492,0,0,0,0,0,0,4.881,4.8834,4.8877,4.8917,4.8938,4.9067,4.9001,4.9003,4.9037,4.903,4.907,4.9073,4.9072,4.9165,4.9181,4.9237,4.9138,4.9402,4.941,4.9416,4.9485,4.95,4.9512,0,0,0,0,0,4.8803,4.8893,4.888,4.8899,4.8993,4.9071,4.9082,4.908,4.9041,4.9084,4.9099,4.9072,4.9221,4.9175,4.9192,4.9251,4.9399,4.9408,4.9416,4.9479,4.9497,4.9512,0,0,0,0,0,0,4.8858,4.8898,4.8884,4.899,4.9027,4.9063,4.9117,4.9099,4.9147,4.9139,4.9132,4.9142,4.9234,4.9251,4.9198,4.9359,4.9304,4.9316,4.9345,4.9363,4.9376,4.937,4.9143,0,0,0,0,0,4.8883,4.8944,4.8975,4.9066,4.9086,4.9098,4.9132,4.9127,4.9165,4.918,4.9201,4.9237,4.9291,4.9328,4.9379,4.9487,4.9494,4.9535,4.9549,4.956,4.9572,4.9629,4.9648,4.9449,4.9448,4.9448,0,0,4.8934,4.8963,4.9002,4.9078,4.9106,4.9168,4.9112,4.918,4.9226,4.9189,4.9275,4.9291,4.9331,4.9429,4.9474,4.9446,4.9628,4.9571,4.958,4.9585,4.964,4.9659,4.9676,4.9454,4.9453,4.9452,0,0,4.9059,4.9088,4.9167,4.9197,4.9242,4.9249,4.9268,4.9307,4.9317,4.9403,4.9377,4.943,4.9524,4.9554,4.9581,4.9717,4.9694,4.9734,4.9806,4.9862,4.9878,4.9892,4.9941,4.9958,4.9745,4.9745,4.9745,0,4.9117,4.9212,4.9209,4.928,4.9314,4.9285,4.9364,4.9393,4.9451,4.9474,4.9442,4.9561,4.9585,4.969,4.9724,4.9746,4.9767,4.973,4.9876,4.989,4.9903,4.995,4.9968,4.9749,4.9749,4.9748,4.9748,0,4.928,4.9347,4.9404,4.9464,4.9504,4.9578,4.9585,4.9625,4.9616,4.9627,4.9714,4.9742,4.9799,4.9823,4.9815,4.9927,4.9909,4.9877,4.9821,4.9927,4.997,4.9988,4.9756,4.9754,4.9753,4.9752,0,0,4.9444,4.9502,4.9523,4.955,4.9596,4.9646,4.9718,4.9776,4.9811,4.9851,4.9911,4.9991,4.9963,4.9994,4.9987,5.0037,5.0143,4.9999,5.0,5.0026,5.0269,5.0293,5.0314,5.0128,5.0131,5.0134,5.0266,0,4.9573,4.9703,4.9702,4.9821,4.9881,4.9855,4.9917,4.9952,4.9963,5.0014,5.0025,5.0083,5.0041,5.0059,5.0107,5.012,5.0192,5.0111,5.0182,5.0185,5.0175,5.0337,5.0363,5.0486,5.0282,5.0285,5.0287,0,4.9742,4.9791,4.9916,4.9954,4.998,5.0036,5.0089,5.0139,5.0176,5.0181,5.0216,5.0202,5.0273,5.0215,5.0312,5.0257,5.0286,5.0297,5.0301,5.0309,5.0244,5.0349,5.0525,5.0544,5.0314,5.0312,5.031,0,4.985,4.9946,5.0034,5.0057,5.0104,5.0144,5.0165,5.0199,5.0234,5.0279,5.0301,5.0353,5.0382,5.0421,5.0421,5.0378,5.052,5.0461,5.0525,5.0525,5.0557,5.0555,5.0741,5.0574,5.0574,5.0573,5.0573,0,4.9995,5.0073,5.0083,5.0137,5.0223,5.022,5.0304,5.0321,5.0352,5.0407,5.0386,5.0437,5.0434,5.0486,5.0486,5.0567,5.0579,5.0584,5.0583,5.0587,5.0586,5.0606,5.0598,5.0578,5.0577,5.0576,5.0575,0,5.013,5.014,5.0234,5.0271,5.0282,5.0344,5.0374,5.0424,5.0433,5.0503,5.0519,5.0533,5.0593,5.0597,5.0665,5.0665,5.0764,5.0753,5.0752,5.075,5.0814,5.0809,5.102,5.1048,5.0862,5.0864,5.0865,0,5.0223,5.0283,5.0326,5.0363,5.0387,5.0446,5.0481,5.048,5.0518,5.0565,5.0609,5.0668,5.0715,5.0811,5.0826,5.0878,5.0869,5.0939,5.0876,5.0878,5.0871,5.0868,5.0873,5.0952,5.0954,5.0955,5.0957,0,5.0386,5.0389,5.0442,5.0498,5.0542,5.0585,5.0625,5.0656,5.0659,5.0702,5.0764,5.0801,5.0871,5.0929,5.098,5.0998,5.0978,5.0976,5.0994,5.0999,5.0996,5.0999,5.0786,5.0972,5.097,5.0969,5.0968,5.0968,5.0504,5.0556,5.0595,5.0655,5.0686,5.0724,5.0773,5.0789,5.0842,5.0901,5.0896,5.0965,5.0999,5.1066,5.1089,5.1141,5.1117,5.1142,5.1149,5.1156,5.1163,5.0987,5.115,5.115,5.1149,5.1149,5.1149,0,5.0667,5.0691,5.0747,5.0805,5.0852,5.083,5.0873,5.0913,5.0975,5.101,5.1057,5.1128,5.1184,5.1203,5.1257,5.1295,5.1287,5.1309,5.1307,5.1312,5.1181,5.1161,5.1315,5.1315,5.1315,5.1315,5.1315,5.1315,5.0758,5.0845,5.0852,5.0953,5.0975,5.1045,5.1071,5.1105,5.1133,5.1215,5.1262,5.1275,5.1303,5.1359,5.1408,5.1412,5.1433,5.146,5.146,5.1338,5.1321,5.1305,5.1286,5.1464,5.1464,5.1586,5.1587,5.1588]}]]